Back to catalog

FENGYUN 1C DEB

AliveSSO
NORAD 29946·DEBRIS·🇨🇳 China

Launched May 10, 1999 from Taiyuan Satellite Launch Center

Loading…

Next Passes (next 24 hours)

TLE

FreshSource: Space-Track

Epoch: Sep 14, 2026, 09:56 UTC

1 29946U 99025JU  26257.41405002  .00000193  00000-0  13431-3 0  9991
2 29946  98.7992 247.6350 0079400 285.9928 234.5144 14.08457939  9154

Track FENGYUN 1C DEB in real time with AllMySat

Download on the App Store